Regional Weather Roundup
Issued by NWS

Home | Current Version | Previous Version | Text Only | Print | Product List | Glossary Off
Versions: 1 2 3 4 5 6 7 8 9 10 11 12 13 14 15 16 17 18 19 20 21 22 23 24 25 26 27 28 29 30 31 32 33 34 35 36 37 38 39 40 41 42 43 44 45 46 47 48 49 50

000
ASUS43 KFSD 240802
RWRSD

WEATHER ROUNDUP FOR SOUTH DAKOTA
NATIONAL WEATHER SERVICE SIOUX FALLS SD
200 AM CST MON NOV 24 2014

NOTE: "FAIR" INDICATES FEW OR NO CLOUDS BELOW 12,000 FEET WITH NO
SIGNIFICANT WEATHER AND/OR OBSTRUCTIONS TO VISIBILITY.


SDZ001>005-009-010-012>017-240900-
NORTHWEST AND NORTH CENTRAL SOUTH DAKOTA

CITY           SKY/WX    TMP DP  RH WIND       PRES   REMARKS
BUFFALO          N/A     18  13  80 N6        29.69R WCI  10
FAITH            N/A     19  14  81 NW16      29.73R WCI   4
MOBRIDGE       CLOUDY    22  15  75 N24G35    29.66R WCI   5
$$

SDZ012>016-024>037-041>051-057-063-072>074-240900-
SOUTHWEST AND SOUTH CENTRAL SOUTH DAKOTA

CITY           SKY/WX    TMP DP  RH WIND       PRES   REMARKS
RAPID CTY ARPT CLEAR     30  20  66 N17       29.72S WCI  18
PIERRE         CLOUDY    24  17  74 NW23G32   29.67F WCI   9
CUSTER         CLEAR     26  12  55 NW17G26   29.67S WCI  13
ELLSWORTH AFB  CLEAR     30  21  69 N15       29.72R WCI  19
PHILIP         CLEAR    N/A N/A N/A NW17      29.74S
PINE RIDGE     MOCLDY    29  22  75 NW10      29.73F WCI  20
WINNER         CLOUDY    26  16  65 NW25G41   29.66S WCI  11
$$

SDZ004>011-016>023-039-040-240900-
NORTHEAST SOUTH DAKOTA

CITY           SKY/WX    TMP DP  RH WIND       PRES   REMARKS
ABERDEEN       CLOUDY    19  10  68 NW23      29.64S WCI   2
WATERTOWN      FLURRIES  16  10  77 NW17      29.52S WCI   0
SISSETON         N/A     17  12  80 N22G31    29.55S WCI   0
$$

SDZ017-020-022-023-036>040-048>070-240900-
SOUTHEAST SOUTH DAKOTA

CITY           SKY/WX    TMP DP  RH WIND       PRES   REMARKS
SIOUX FALLS    CLOUDY    20  12  71 NW29G39   29.53R WCI   1
HURON          CLOUDY    20  12  71 NW20G29   29.62S WCI   4
MITCHELL       CLOUDY    24  14  65 NW25G31   29.61F WCI   8
YANKTON        CLOUDY   N/A N/A N/A NW23G31   29.57S
$$

ABBREVIATIONS USED IN REMARKS
   TC - TEMPERATURE IN CELSIUS
  WCI - WIND CHILL INDEX
   HX - HEAT INDEX
  VSB - VISIBILITY




USA.gov is the U.S. government's official web portal to all federal, state and local government web resources and services.